Location: Henham
(51.9333°N, 0.2500°E)
Time: 05:41:25
(UTC+00:00)

Cosmos 1898 Rocket - Pass Details

Date: 23 October 2019
Orbit: 753 x 784 km, 74.0° (Epoch: 13 November)

Event Time Altitude Azimuth Distance (km) Brightness Sun altitude
Rises 19:07:34 0° 332° (NNW) 3,255 7.3 -22.0°
Reaches altitude 10° 19:09:59 10° 327° (NNW) 2,329 6.5 -22.3°
Maximum altitude 19:15:07 53° 252° (WSW) 955 4.2 -23.1°
Enters shadow 19:19:55 12° 178° (S) 2,207 5.7 -23.8°
